Lid_Strength_Index
11 13 15 13 13 12 13 14 15 13 12 13 13 13 12 11 10 11 10 10 10 10 9 8 8 7 5 5 4 4 2 2 2 2 2 2 2 2 1 1 1 1 1 2
13 15 12 11 11 12 13 14 15 12 10 11 13 13 12 12 11 11 10 10 10 9 9 9 9 8 7 6 6 4 2 2 2 2 1 2 2 2 1 1 2 1 1 1
15 12 10 11 12 13 14 14 14 13 11 11 13 13 13 11 11 10 10 10 9 10 10 9 8 9 9 7 6 6 2 2 2 1 2 4 3 3 3 3 2 2 2 1
13 11 11 13 12 11 15 11 11 12 14 17 12 19 14 13 13 11 11 11 11 10 8 7 7 7 7 7 7 6 2 2 2 1 2 2 3 3 3 2 3 3 1 1
13 12 12 13 12 10 13 10 12 12 14 16 15 18 17 13 13 12 12 9 8 8 7 7 6 6 5 5 6 6 3 2 2 2 2 2 4 4 4 3 2 2 1 1
12 10 11 11 8 9 9 11 13 14 16 20 16 16 18 16 14 13 9 8 7 7 7 7 6 6 5 5 5 5 3 2 2 2 2 2 3 4 4 3 3 2 2 1
12 12 9 8 11 10 12 15 19 20 19 19 14 15 16 13 10 9 8 8 7 7 8 8 8 7 5 5 4 4 4 3 2 2 2 3 3 4 3 3 3 3 2 2
16 16 10 8 11 13 13 14 18 21 20 18 13 18 16 11 8 7 7 7 7 8 8 7 7 7 5 4 4 5 4 3 2 2 2 2 4 4 2 2 2 2 2 2
15 14 9 8 9 10 13 15 13 16 16 18 16 14 11 9 8 8 7 7 7 7 7 7 6 6 5 5 5 5 3 4 2 2 2 2 3 3 2 2 2 2 2 2
12 15 10 9 9 9 11 10 16 17 20 21 17 16 15 11 10 9 8 8 7 6 6 6 6 5 4 5 5 6 4 4 2 3 3 3 2 2 2 2 2 2 2 2
11 13 12 11 12 13 13 14 14 15 16 20 21 17 11 11 10 10 9 8 7 7 6 5 5 4 5 5 7 7 4 3 3 4 3 3 2 2 2 2 2 2 2 2
10 13 16 13 10 9 11 12 13 18 18 16 17 17 8 9 9 8 8 7 6 6 5 5 5 5 5 5 7 7 5 6 2 3 3 2 2 2 2 2 2 2 2 2
10 14 17 15 14 11 13 12 12 13 15 16 19 16 9 9 9 8 8 7 7 6 5 5 5 5 4 6 6 3 3 5 3 2 3 3 3 2 2 2 2 2 2 3
8 13 15 18 15 14 14 12 11 12 17 16 16 14 11 9 9 8 8 7 7 6 6 5 5 5 5 5 4 4 3 5 3 3 3 3 3 2 2 2 2 2 2 3
10 15 13 12 11 11 12 13 12 14 13 16 14 13 11 9 9 9 7 7 7 6 6 5 5 5 5 6 4 3 3 3 3 3 3 3 2 3 3 3 3 2 3 3
11 14 13 15 12 12 13 12 12 11 11 12 12 12 9 9 8 8 7 7 7 6 6 5 5 5 5 5 4 4 3 4 3 3 3 3 3 3 3 3 3 3 4 3
12 13 14 16 12 13 16 13 12 12 11 12 14 11 9 9 8 8 7 7 7 6 6 6 6 6 5 5 4 4 3 4 3 3 3 3 4 4 4 4 4 4 5 4
13 13 13 16 15 20 13 10 10 12 11 10 10 9 8 9 8 7 6 6 6 6 7 7 6 6 6 5 3 3 3 4 4 3 3 3 3 3 3 4 4 5 5 4
10 12 15 17 18 14 12 12 12 13 12 9 9 9 8 8 8 8 6 5 6 7 7 7 6 6 6 5 4 3 3 3 3 3 3 3 2 3 4 4 4 4 4 4
9 10 14 16 18 21 15 10 8 9 15 9 9 10 9 9 12 9 7 6 6 6 6 7 6 6 6 5 4 3 4 3 4 3 3 2 2 4 5 4 5 4 3 4
14 14 16 16 17 15 10 9 8 16 14 9 7 8 9 10 8 6 6 6 6 6 6 6 6 7 6 4 4 4 4 4 3 3 2 2 3 4 4 4 3 4 3 3
14 15 16 15 17 18 8 9 13 10 8 7 7 7 8 7 6 6 6 7 6 6 6 6 7 7 5 4 3 4 4 3 2 4 2 3 4 3 3 3 3 3 3 4
14 12 14 13 14 9 8 8 7 7 7 7 7 6 6 7 7 7 7 7 6 6 6 6 7 6 5 4 3 4 3 3 2 3 3 3 3 3 3 3 3 4 3 4
10 8 12 12 10 9 8 7 6 6 6 6 6 7 7 8 8 7 7 7 7 7 6 6 7 6 5 4 3 3 3 2 3 3 3 3 3 3 3 2 3 3 4 3
11 10 12 11 9 8 7 6 6 6 6 6 6 7 8 8 7 7 7 6 7 6 6 6 6 6 5 4 4 3 2 2 3 3 3 3 3 3 6 8 7 3 4 4
10 11 12 13 9 9 8 6 6 8 8 8 8 8 7 7 7 7 6 6 6 6 6 6 6 5 4 3 4 3 3 2 3 4 3 3 4 4 5 6 8 14 13 11